Regional Weather Roundup
Issued by NWS Little Rock, AR

Home | Current Version | Previous Version | Graphics & Text | Print | Product List | Glossary On
Versions: 1 2 3 4 5 6 7 8 9 10 11 12 13 14 15 16 17 18 19 20 21 22 23 24 25 26 27 28 29 30 31 32 33 34 35 36 37 38 39 40 41 42 43 44 45 46 47 48 49 50
000
ASUS44 KLZK 250305
RWRLZK

WEATHER ROUNDUP FOR ARKANSAS
NATIONAL WEATHER SERVICE LITTLE ROCK AR
1000 PM CDT THU JUL 24 2014

NOTE: "FAIR" INDICATES FEW OR NO CLOUDS BELOW 12,000 FEET WITH NO
SIGNIFICANT WEATHER AND/OR OBSTRUCTIONS TO VISIBILITY.

ARZ001-003-010-029-250400-
NORTHWEST ARKANSAS

CITY           SKY/WX    TMP DP  RH WIND       PRES   REMARKS
FAYETTEVILLE   CLEAR     71  69  93 CALM      30.05R
FORT SMITH     CLEAR     78  71  79 E5        30.00R
HARRISON       CLEAR     71  64  78 SE7       30.07R
BENTONVILLE    CLEAR     75  64  69 CALM      30.05S
ROGERS         CLEAR     77  63  61 E8        30.05S
SILOAM SPGS    CLEAR     73  63  68 SE3       30.05R
HIGHFILL       CLEAR     74  69  85 CALM      30.04R
$$

ARZ004-005-016-250400-
NORTH CENTRAL ARKANSAS

CITY           SKY/WX    TMP DP  RH WIND       PRES   REMARKS
BATESVILLE     CLEAR     68  63  83 CALM      30.05R
FLIPPIN        CLEAR     70  63  78 CALM      30.06R
MTN HOME       CLEAR     69  60  73 CALM      30.05R
$$

ARZ040-041-250400-
WEST CENTRAL ARKANSAS

CITY           SKY/WX    TMP DP  RH WIND       PRES   REMARKS
MENA           CLEAR     77  73  88 CALM      30.03R
MOUNT IDA      CLEAR     74  72  93 CALM      30.01R FOG
$$

ARZ009-017-025-026-028-250400-
NORTHEAST ARKANSAS

CITY           SKY/WX    TMP DP  RH WIND       PRES   REMARKS
CORNING        FAIR      72  64  78 NE3       30.06R
JONESBORO      CLEAR     67  59  75 NE5       30.05R
NEWPORT        CLEAR     70  65  84 E6        30.06R
WALNUT RIDGE   CLEAR     70  63  78 E3        30.05R
BLYTHEVILLE    CLEAR     67  65  93 N6        30.05R
$$

ARZ022-023-033-042-044-250400-
CENTRAL ARKANSAS

CITY           SKY/WX    TMP DP  RH WIND       PRES   REMARKS
LITTLE ROCK    CLEAR     74  66  76 E6        30.03R
N LITTLE ROCK  CLEAR     74  69  85 E7        30.03R
JACKSONVILLE   CLEAR     72  66  83 E5        30.04R
SEARCY         CLEAR     70  64  81 CALM      30.05R
HOT SPRINGS    PTCLDY    78  72  81 E5        30.03R
RUSSELLVILLE   CLEAR     74  71  91 CALM      30.02R
CLINTON        MOCLDY    72  70  94 CALM      30.06R
$$

ARZ036-250400-
EAST ARKANSAS

CITY           SKY/WX    TMP DP  RH WIND       PRES   REMARKS
WEST MEMPHIS   CLEAR     69  64  84 NW3       30.04R
$$

ARZ050-053-066-070-073-250400-
SOUTHWEST ARKANSAS

CITY           SKY/WX    TMP DP  RH WIND       PRES   REMARKS
ARKADELPHIA    MOCLDY    76  75  96 CALM      30.02R
CAMDEN         CLEAR     73  70  88 E3        30.01R FOG
TEXARKANA      CLEAR     74  72  93 CALM      30.00R
EL DORADO      CLEAR     75  73  93 NE5       30.01R
DE QUEEN       CLEAR     75  73  93 CALM      29.98R
$$

ARZ056-057-069-250400-
SOUTHEAST ARKANSAS

CITY           SKY/WX    TMP DP  RH WIND       PRES   REMARKS
PINE BLUFF     CLEAR     71  67  87 E5        30.03R
STUTTGART      CLEAR     72  63  73 NE6       30.04R
MONTICELLO     CLEAR     74  69  85 NE3       30.02R

$$





USA.gov is the U.S. government's official web portal to all federal, state and local government web resources and services.